Location: Artiguedieu
(43.5000°N, 0.5454°E)
Time: 11:18:36
(UTC+00:00)

Cosmos 2344 - Pass Details

Date: 06 December 2020
Orbit: 1244 x 2998 km, 63.3° (Epoch: 27 January)

Event Time Altitude Azimuth Distance (km) Brightness Sun altitude
Exits shadow 04:55:46 32° 309° (NW) 2,765 4.8 -24.7°
Maximum altitude 05:01:20 64° 240° (WSW) 2,200 4.5 -23.7°
Drops below altitude 10° 05:14:53 10° 164° (SSE) 5,259 7.1 -21.3°
Sets 05:19:13 0° 161° (SSE) 6,467 7.7 -20.5°
